This is the latest recevied weather packets stored in our database for station/object W4SMH. If no packets are shown the sender has not sent any weather packets the latest 10 day(s).
| Time | Temp. | Humidity | Pressure | Rain* | Wind** | Luminosity | Snow |
|---|---|---|---|---|---|---|---|
| 1777848774 | 20.56° C | 46% | 1003.4 hPa | 0 mm | - | 318 W/m² | - |
| 1777848623 | 20.56° C | 47% | 1003.5 hPa | 0 mm | - | 330 W/m² | - |
| 1777848319 | 20.56° C | 44% | 1003.5 hPa | 0 mm | - | 352 W/m² | - |
| 1777848254 | 20.56° C | 46% | 1003.5 hPa | 0 mm | - | 362 W/m² | - |
| 1777847589 | 20.56° C | 45% | 1003.7 hPa | 0 mm | - | 390 W/m² | - |
| 1777847110 | 20.56° C | 45% | 1003.7 hPa | 0 mm | - | 422 W/m² | - |
| 1777846601 | 20.56° C | 45% | 1003.6 hPa | 0 mm | - | 446 W/m² | - |
| 1777846430 | 20.56° C | 45% | 1003.7 hPa | 0 mm | - | 450 W/m² | - |
| 1777846382 | 20.56° C | 45% | 1003.7 hPa | 0 mm | - | 454 W/m² | - |
| 1777846340 | 20.56° C | 45% | 1003.7 hPa | 0 mm | - | 461 W/m² | - |
| 1777846070 | 20.56° C | 45% | 1003.5 hPa | 0 mm | - | 469 W/m² | - |
| 1777845771 | 20.56° C | 45% | 1003.5 hPa | 0 mm | - | 483 W/m² | - |
| 1777845737 | 20.56° C | 45% | 1003.6 hPa | 0 mm | - | 489 W/m² | - |
| 1777845613 | 20.56° C | 46% | 1003.6 hPa | 0 mm | - | 501 W/m² | - |
| 1777845531 | 20.56° C | 46% | 1003.6 hPa | 0 mm | - | 510 W/m² | - |
| 1777844358 | 20° C | 48% | 1003.8 hPa | 0 mm | - | 584 W/m² | - |
| 1777844164 | 20° C | 47% | 1003.8 hPa | 0 mm | - | 585 W/m² | - |
| 1777843236 | 20° C | 48% | 1003.9 hPa | 0 mm | - | 622 W/m² | - |
| 1777843181 | 20° C | 47% | 1004.1 hPa | 0 mm | - | 626 W/m² | - |
| 1777842926 | 20° C | 46% | 1003.9 hPa | 0 mm | - | 661 W/m² | - |
| 1777842081 | 19.44° C | 46% | 1004.2 hPa | 0 mm | - | 710 W/m² | - |
| 1777841695 | 19.44° C | 47% | 1004.3 hPa | 0 mm | - | 687 W/m² | - |
| 1777840772 | 18.89° C | 48% | 1004.4 hPa | 0 mm | - | 735 W/m² | - |
| 1777840742 | 18.89° C | 48% | 1004.5 hPa | 0 mm | - | 814 W/m² | - |
| 1777840205 | 19.44° C | 45% | 1004.5 hPa | 0 mm | - | 200 W/m² | - |
* Rain latest hour (hover to see other rain measurements)
** Current wind speed in m/s (hover to see current wind gust speed)